Rock Springs, WY

8:19 AM MDT on March 28, 2017 (GMT -0600)
Rock Springs-Sweetwater

Weather History for KRKS - April, 2013

Change the Weather History Date:

Monday, April 1, 2013

  Actual Average Record
Temperature  
Mean Temperature 42 °F 38 °F  
Max Temperature 56 °F 49 °F 64 °F (2003)
Min Temperature 28 °F 27 °F 7 °F (1975)
Degree Days  
Heating Degree Days 23 27  
Month to date heating degree days 23 27  
Since 1 July heating degree days 6419 6856  
Cooling Degree Days 0 0  
Month to date cooling degree days 0 0  
Year to date cooling degree days 0 0  
Moisture  
Dew Point 25 °F    
Average Humidity 54    
Maximum Humidity 79    
Minimum Humidity 28    
Precipitation  
Precipitation T in 0.02 in 0.45 in (1978)
Month to date precipitation T 0.02  
Year to date precipitation T 1.63  
Sea Level Pressure  
Sea Level Pressure 29.94 in    
Wind  
Wind Speed 10 mph (ENE)    
Max Wind Speed 26 mph    
Max Gust Speed 32 mph    
Visibility 10 miles    
Events Rain    
T = Trace of Precipitation, MM = Missing Value Source: NWS Daily Summary

Daily Weather History Graph

Daily Weather History Graph

Search for Another Location

Airport or City:

Trip Planner

Search our weather history database for the weather conditions in past years. The results will help you decide how hot, cold, wet, or windy it might be!

Date:

Astronomy

Apr. 01, 2013 Rise Set
Actual Time 6:58 AM MDT 7:41 PM MDT
Civil Twilight 6:30 AM MDT 8:10 PM MDT
Nautical Twilight 5:57 AM MDT 8:43 PM MDT
Astronomical Twilight 5:23 AM MDT 9:17 PM MDT
Moon 12:56 AM MDT (4/1) 10:45 AM MDT (4/1)
Length of Visible Light 13h 39m
Length of Day
12h 43m
Waning Gibbous, 66% of the Moon is Illuminated
Apr 1
Waning Gibbous
Apr 2
Last Quarter
Apr 10
New
Apr 18
First Quarter
Apr 25
Full

Hourly Weather History & Observations

Time (MDT) Temp. Windchill Dew Point Humidity Pressure Visibility Wind Dir Wind Speed Gust Speed Precip Events Conditions
2:54 AM 33.1 °F 26.9 °F 21.0 °F 61% 29.94 in 10.0 mi NE 6.9 mph - N/A   Clear
3:54 AM 30.0 °F 23.2 °F 19.9 °F 66% 29.94 in 10.0 mi ENE 6.9 mph - N/A   Clear
4:54 AM 28.9 °F 20.4 °F 19.9 °F 69% 29.94 in 10.0 mi ENE 9.2 mph - N/A   Clear
7:54 AM 30.0 °F 25.2 °F 21.0 °F 69% 30.02 in 10.0 mi ENE 4.6 mph - N/A   Clear
8:54 AM 36.0 °F 28.0 °F 23.0 °F 59% 30.01 in 10.0 mi ENE 11.5 mph - N/A   Scattered Clouds
9:54 AM 39.0 °F 32.3 °F 23.0 °F 53% 29.98 in 10.0 mi ENE 10.4 mph - N/A   Scattered Clouds
12:54 PM 53.1 °F - 21.9 °F 30% 29.92 in 10.0 mi East 11.5 mph - N/A   Partly Cloudy
2:54 PM 50.0 °F - 19.9 °F 31% 29.91 in 10.0 mi Calm Calm - N/A   Overcast
3:54 PM 54.0 °F - 21.0 °F 28% 29.88 in 10.0 mi North 10.4 mph 18.4 mph N/A   Scattered Clouds
4:54 PM 54.0 °F - 21.0 °F 28% 29.87 in 10.0 mi ENE 6.9 mph - N/A   Mostly Cloudy
5:54 PM 53.1 °F - 21.0 °F 29% 29.86 in 10.0 mi NE 17.3 mph - N/A   Overcast
6:54 PM 50.0 °F - 21.0 °F 32% 29.89 in 10.0 mi ENE 15.0 mph 25.3 mph N/A   Overcast
7:54 PM 46.0 °F 39.0 °F 30.0 °F 54% 29.93 in 10.0 mi ESE 17.3 mph 27.6 mph N/A   Overcast
8:01 PM 44.6 °F 37.4 °F 30.2 °F 57% 29.96 in 10.0 mi ESE 16.1 mph - N/A   Overcast
8:54 PM 42.1 °F 34.5 °F 33.1 °F 70% 29.95 in 10.0 mi SSE 15.0 mph - N/A   Mostly Cloudy
9:54 PM 39.9 °F 33.9 °F 33.1 °F 77% 29.96 in 10.0 mi ESE 9.2 mph - N/A   Partly Cloudy
10:54 PM 37.9 °F 29.2 °F 35.1 °F 89% 29.95 in 3.0 mi East 15.0 mph 27.6 mph 0.00 in Rain Rain
11:16 PM 37.4 °F 29.8 °F 35.6 °F 93% 30.00 in 10.0 mi East 11.5 mph - 0.00 in   Overcast
11:54 PM 37.0 °F 30.4 °F 33.1 °F 86% 29.92 in 10.0 mi East 9.2 mph - 0.00 in   Mostly Cloudy